Regional Weather Roundup
Issued by NWS Nashville, TN

Home | Current Version | Previous Version | Text Only | Print | Product List | Glossary On
Versions: 1 2 3 4 5 6 7 8 9 10 11 12 13 14 15 16 17 18 19 20 21 22 23 24 25 26 27 28 29 30 31 32 33 34 35 36 37 38 39 40 41 42 43 44 45 46 47 48 49 50
000
ASUS44 KOHX 301210
RWROHX
MIDDLE TENNESSEE HOURLY WEATHER ROUNDUP
NATIONAL WEATHER SERVICE NASHVILLE TN
700 AM CDT THU JUL 30 2015

NOTE: "FAIR" INDICATES FEW OR NO CLOUDS BELOW 12,000 FEET WITH
NO SIGNIFICANT WEATHER AND/OR OBSTRUCTIONS TO VISIBILITY.

* THESE REPORTS ARE NOT UNDER NWS QUALITY CONTROL AND MAY NOT
  REPORT WEATHER SUCH AS PRECIPITATION AND FOG.


TNZ005>011-023>034-057-059-062>066-078-080-301300
...NORTHERN MIDDLE TENNESSEE...

CITY           SKY/WX    TMP DP  RH WIND       PRES   REMARKS
CLARKSVILLE    MOSUNNY   72  64  76 N5        30.09R
CROSSVILLE     CLOUDY    73  69  87 N6        30.10R
DICKSON        MOSUNNY   72  64  78 N7        30.06F
LIVINGSTON     PTSUNNY   73  69  87 N8        30.09R
NASHVILLE      PTSUNNY   77  68  73 N12       30.07R
ROCKWOOD       PTSUNNY   73  68  84 N12       30.08R
SMYRNA         PTSUNNY   78  71  79 N9        30.07R
$$
TNZ056-058-060-061-075>077-079-093>097-301300
...SOUTHERN MIDDLE TENNESSEE...

CITY           SKY/WX    TMP DP  RH WIND       PRES   REMARKS
COLUMBIA       SUNNY     75  75 100 N3        30.06R
LEWISBURG      CLOUDY    76  72  87 CALM      30.06R
MCMINNVILLE    CLOUDY    73  73 100 CALM      30.07R
SHELBYVILLE    CLOUDY    75  73  94 N7        30.07R
TULLAHOMA      CLOUDY    73  70  88 N5        30.08R
WINCHESTER     CLOUDY    73  72  94 CALM      30.06R
$$


...KEY TO REMARKS...
VSB - VISIBILITY IN MILES
WCI - WIND CHILL INDEX
HX  - HEAT INDEX




USA.gov is the U.S. government's official web portal to all federal, state and local government web resources and services.